Total_Precipitation_Accumulation
0.24 0.37 0.82 1.16 1.35 1.36 1.22 1.21 1.21 1.20 1.24 1.20 1.15 1.10 0.99 0.98 0.97 0.96 0.96 1.00 1.17 1.34 1.44 1.48 1.38 1.32 1.15 1.01 0.81 0.60 0.55 0.58 0.52 0.45 0.43 0.52 0.62 0.61 0.55 0.55 0.58 0.64 0.88
0.24 0.36 0.76 1.15 1.44 1.46 1.32 1.21 1.08 1.04 1.13 1.25 1.23 1.13 1.08 1.05 1.06 1.03 1.08 1.17 1.33 1.41 1.46 1.47 1.35 1.17 0.96 0.75 0.60 0.48 0.41 0.35 0.30 0.23 0.20 0.29 0.49 0.61 0.60 0.56 0.57 0.77 0.86
0.25 0.38 0.71 1.14 1.41 1.39 1.29 1.17 1.02 0.99 1.09 1.23 1.34 1.21 1.16 1.16 1.17 1.12 1.17 1.28 1.43 1.45 1.32 1.22 1.13 0.90 0.73 0.54 0.43 0.37 0.35 0.30 0.24 0.18 0.18 0.28 0.44 0.72 0.76 0.69 0.80 0.95 0.88
0.31 0.42 0.68 1.14 1.42 1.46 1.36 1.20 1.06 1.04 1.13 1.25 1.43 1.42 1.34 1.28 1.24 1.24 1.18 1.28 1.34 1.26 1.15 0.94 0.82 0.65 0.55 0.46 0.38 0.33 0.30 0.27 0.21 0.17 0.23 0.29 0.39 0.85 0.95 0.85 0.89 0.93 0.84
0.39 0.50 0.77 1.18 1.51 1.56 1.42 1.28 1.13 1.11 1.23 1.31 1.39 1.49 1.47 1.37 1.38 1.38 1.27 1.19 1.18 1.10 0.96 0.77 0.63 0.49 0.41 0.36 0.35 0.32 0.27 0.22 0.16 0.15 0.21 0.28 0.44 0.93 0.97 0.93 0.88 0.86 0.80
0.50 0.66 0.88 1.22 1.57 1.69 1.55 1.41 1.27 1.25 1.36 1.40 1.43 1.55 1.54 1.52 1.58 1.49 1.27 1.10 1.01 0.90 0.78 0.69 0.57 0.43 0.37 0.33 0.30 0.27 0.25 0.19 0.12 0.14 0.18 0.24 0.40 0.86 0.99 0.91 0.87 0.82 0.86
0.57 0.84 1.11 1.40 1.68 1.88 1.78 1.68 1.58 1.49 1.49 1.51 1.52 1.56 1.60 1.58 1.59 1.46 1.18 1.03 0.94 0.85 0.79 0.69 0.56 0.43 0.37 0.35 0.30 0.23 0.21 0.15 0.15 0.19 0.21 0.25 0.47 0.94 1.03 0.95 0.92 0.91 0.90
0.69 0.94 1.32 1.75 1.94 2.13 2.11 1.95 1.89 1.70 1.63 1.63 1.62 1.64 1.67 1.67 1.61 1.51 1.21 1.07 0.95 0.91 0.87 0.77 0.61 0.49 0.39 0.33 0.28 0.24 0.20 0.12 0.14 0.18 0.22 0.27 0.50 0.86 0.90 0.83 0.82 0.86 0.88
0.99 1.09 1.34 1.73 2.03 2.32 2.35 2.05 2.04 1.87 1.70 1.71 1.74 1.76 1.65 1.59 1.58 1.49 1.27 1.16 1.05 1.03 0.99 0.88 0.73 0.58 0.43 0.36 0.28 0.23 0.17 0.11 0.12 0.18 0.19 0.28 0.49 0.75 0.75 0.71 0.76 0.83 0.82
1.45 1.45 1.50 1.74 1.99 2.34 2.45 2.09 1.92 1.82 1.73 1.68 1.65 1.57 1.44 1.34 1.37 1.36 1.24 1.17 1.09 1.09 1.06 0.92 0.79 0.65 0.51 0.41 0.30 0.22 0.17 0.13 0.13 0.17 0.21 0.29 0.54 0.78 0.74 0.74 0.76 0.78 0.83
1.89 1.90 1.86 1.91 1.97 2.17 2.36 2.22 2.07 1.91 1.77 1.65 1.57 1.42 1.36 1.30 1.23 1.10 1.03 1.04 1.05 1.09 1.11 0.98 0.84 0.72 0.51 0.39 0.30 0.23 0.21 0.18 0.18 0.23 0.26 0.36 0.64 0.83 0.84 0.83 0.80 0.77 0.81
2.01 2.02 2.07 2.12 2.12 2.20 2.26 2.28 2.23 2.03 1.86 1.69 1.51 1.39 1.38 1.38 1.28 1.09 1.04 1.01 1.06 1.12 1.16 1.09 0.91 0.78 0.56 0.44 0.37 0.29 0.25 0.22 0.26 0.30 0.31 0.45 0.71 0.89 0.92 0.87 0.79 0.78 0.82
2.25 2.18 2.18 2.29 2.39 2.36 2.35 2.28 2.21 2.01 1.92 1.84 1.67 1.49 1.46 1.58 1.48 1.35 1.18 1.07 1.11 1.09 1.10 1.06 0.95 0.76 0.59 0.48 0.42 0.35 0.30 0.29 0.29 0.33 0.36 0.50 0.81 1.00 1.01 0.92 0.81 0.78 0.82
2.65 2.52 2.52 2.64 2.68 2.61 2.51 2.37 2.26 2.04 1.87 1.82 1.75 1.71 1.63 1.58 1.44 1.35 1.24 1.06 1.04 1.03 1.05 1.08 0.94 0.81 0.71 0.59 0.49 0.46 0.42 0.39 0.38 0.42 0.43 0.46 0.72 1.00 1.13 1.10 0.98 0.94 0.92
2.87 2.90 2.87 2.97 3.05 2.97 2.85 2.61 2.32 2.15 1.94 1.82 1.81 1.79 1.69 1.58 1.47 1.38 1.29 1.25 1.11 1.04 1.02 1.10 1.10 0.95 0.85 0.76 0.64 0.52 0.49 0.49 0.47 0.50 0.49 0.50 0.61 0.86 1.19 1.35 1.33 1.25 1.21
2.90 3.10 3.25 3.30 3.29 3.24 3.07 2.83 2.50 2.34 2.16 2.05 1.94 1.84 1.76 1.71 1.67 1.59 1.42 1.34 1.23 1.13 1.09 1.14 1.18 1.08 1.00 0.88 0.77 0.65 0.58 0.57 0.50 0.48 0.50 0.54 0.56 0.68 0.99 1.34 1.51 1.55 1.54
2.87 3.18 3.40 3.59 3.75 3.57 3.38 3.13 2.83 2.65 2.48 2.32 2.12 1.98 1.86 1.79 1.86 1.81 1.67 1.45 1.32 1.29 1.27 1.26 1.30 1.30 1.19 1.02 0.90 0.83 0.74 0.66 0.58 0.54 0.54 0.55 0.55 0.54 0.72 1.09 1.42 1.54 1.63
2.83 3.07 3.31 3.39 3.72 3.88 3.78 3.54 3.14 2.90 2.74 2.61 2.43 2.26 2.16 1.98 2.01 2.07 1.89 1.71 1.57 1.53 1.50 1.43 1.33 1.25 1.18 1.06 0.95 0.88 0.82 0.77 0.69 0.67 0.67 0.61 0.57 0.50 0.56 0.76 1.00 1.26 1.49
2.88 3.02 3.33 3.39 3.54 3.81 3.98 3.88 3.63 3.37 3.12 2.91 2.76 2.57 2.47 2.34 2.23 2.23 2.13 1.96 1.88 1.79 1.74 1.66 1.51 1.33 1.21 1.09 1.01 1.00 0.95 0.88 0.82 0.76 0.70 0.64 0.61 0.59 0.58 0.59 0.66 0.83 1.06
2.97 3.24 3.49 3.67 3.73 3.97 4.41 4.44 4.17 3.92 3.65 3.45 3.18 2.95 2.82 2.74 2.62 2.44 2.40 2.30 2.20 2.04 1.93 1.92 1.79 1.55 1.36 1.29 1.23 1.13 1.04 0.96 0.94 0.88 0.79 0.72 0.68 0.68 0.71 0.70 0.70 0.71 0.79
2.71 3.07 3.23 3.53 3.78 3.99 4.22 4.29 4.09 3.82 3.63 3.49 3.49 3.39 3.17 3.00 2.91 2.75 2.56 2.57 2.50 2.28 2.04 2.04 2.06 1.85 1.66 1.61 1.57 1.35 1.17 1.04 0.98 0.90 0.92 0.90 0.81 0.74 0.77 0.83 0.87 0.81 0.69
2.37 2.61 2.85 3.11 3.42 3.65 3.77 3.87 4.00 4.02 3.78 3.52 3.47 3.50 3.44 3.30 3.13 2.93 2.75 2.66 2.63 2.57 2.32 2.14 2.20 2.13 1.95 1.89 1.91 1.86 1.65 1.44 1.14 0.96 0.93 0.92 0.89 0.88 0.82 0.80 0.84 0.85 0.81
2.11 2.33 2.55 2.80 3.01 3.17 3.54 3.86 4.00 4.28 4.20 3.77 3.41 3.24 3.36 3.43 3.38 3.15 2.92 2.86 2.78 2.77 2.67 2.47 2.35 2.31 2.24 2.12 2.10 2.28 2.07 1.71 1.32 1.10 1.02 0.98 0.94 0.97 0.96 0.91 0.86 0.85 0.85
1.83 2.04 2.33 2.64 2.88 2.96 3.28 3.56 3.60 3.61 3.71 3.48 3.26 3.23 3.34 3.41 3.46 3.41 3.21 3.00 2.89 2.84 2.79 2.84 2.83 2.68 2.55 2.35 2.18 2.04 1.96 1.77 1.69 1.46 1.19 1.14 1.09 1.02 1.05 1.03 0.97 0.94 0.90
1.63 1.75 2.02 2.41 2.72 2.89 3.01 3.23 3.45 3.49 3.50 3.59 3.53 3.39 3.31 3.26 3.32 3.45 3.38 3.18 2.88 2.70 2.61 2.68 2.78 2.84 2.71 2.47 2.29 2.14 2.00 1.76 1.65 1.68 1.48 1.30 1.28 1.14 1.09 1.12 1.13 1.13 1.14
1.44 1.50 1.73 2.02 2.45 2.84 2.98 3.05 3.15 3.23 3.21 3.32 3.48 3.45 3.36 3.23 3.18 3.25 3.27 3.16 2.97 2.74 2.56 2.56 2.69 2.78 2.82 2.73 2.50 2.28 2.16 1.99 1.72 1.71 1.65 1.48 1.49 1.36 1.22 1.20 1.24 1.30 1.31